Regional Weather Roundup
Issued by NWS Newport/Morehead, NC

Current Version | Previous Version | Graphics & Text | Print | Product List | Glossary Off
Versions: 1 2 3 4 5 6 7 8 9 10 11 12 13 14 15 16 17 18 19 20 21 22 23 24 25 26 27 28 29 30 31 32 33 34 35 36 37 38 39 40 41 42 43 44 45 46 47 48 49 50

000
ASUS42 KMHX 250425
RWRMHX
WEATHER ROUNDUP FOR EASTERN NORTH CAROLINA
NATIONAL WEATHER SERVICE NEWPORT/MOREHEAD CITY NC
1200 AM EDT MON JUL 25 2016

NOTE: "FAIR" INDICATES FEW OR NO CLOUDS BELOW 12,000 FEET
WITH NO SIGNIFICANT WEATHER AND/OR OBSTRUCTIONS TO VISIBILITY

NCZ015>017-031-032-045>047-102-103-250500-
NORTH COAST

CITY           SKY/WX    TMP DP  RH WIND       PRES   REMARKS
EDENTON        CLEAR     83  75  76 SW6       30.04S
ELIZABETH CITY CLEAR     82  78  88 S10       30.03S
KITTY HAWK     CLEAR     82  76  82 SW6       30.03F
MANTEO           N/A     82  79  91 SW12      30.05S

$$

NCZ045>047-081-094-103-104-250500-
CENTRAL COAST

CITY           SKY/WX    TMP DP  RH WIND       PRES   REMARKS
FRISCO         PTCLDY    82  78  88 SW7       30.06S

$$

NCZ095-097-098-100-101-250500-
SOUTHERN COAST

CITY           SKY/WX    TMP DP  RH WIND       PRES   REMARKS
BEAUFORT       PTCLDY    83  77  82 SW12      30.06S
CEDAR ISLAND   NOT AVBL
JACKSONVILLE   CLEAR     79  75  87 S3        30.05S
PINEY ISLAND   CLEAR    N/A N/A N/A S6        30.06R
WILMINGTON     CLEAR     79  75  87 S5        30.06S


$$

NCZ011>013-027>030-043-044-078>080-089-090>093-098-250500-
COASTAL PLAIN

CITY           SKY/WX    TMP DP  RH WIND       PRES   REMARKS
AHOSKIE        PTCLDY    78  76  95 S5        30.03S
CLINTON        CLEAR     80  78  92 S3        30.06S
ELIZABETHTOWN  CLEAR     80  78  94 S3        30.05S
GOLDSBORO      CLEAR     82  80  96 S5        30.03S
GREENVILLE     CLEAR     81  77  89 SW7       30.05F
HAVELOCK       CLEAR     79  76  90 S5        30.07R
KENANSVILLE    NOT AVBL
KINSTON        CLEAR     80  76  88 S5        30.05F
NEW BERN       CLEAR     79  76  90 S6        30.07R
RICHLANDS      CLEAR     77  75  93 S3        30.06S
ROCKY MOUNT    CLEAR     79  76  90 S3        30.04S
WASHINGTON     CLEAR     79  75  87 S5        30.04F
WHITEVILLE     CLEAR     80  77  91 CALM      30.05S

$$

AMZ130-135-150-152-154-156-158-170-250-252-270-ANZ085-086-088-633-658-670-250500-
MARINE OBSERVATIONS

STATION/POSITION TIME  TEMP    WIND        PRES    WAVE   SWELL
                       AIR SEA DIR/SP/G            HT/PER HT/PER
                 (UTC) (F)     (DEG/KT/KT) (MB)    (FT/S) (FT/S)
CHESAPEAKE LIGHT NOT AVBL
64 E VA BEACH    0350   83 81  220/ 12/ 14 1016.3    3/ 5   2/ 8
DUCK             0400   84 62  220/ 13/ 17 1016.1
2 E DUCK         0411      75                N/A     1/ 9
OREGON INLET     0400   84 85  210/ 15/ 18 1017.2
13E OREGON INLT  0400      83                N/A     2/ 8   2/ 8
HATTERAS CG      0400   82 84  220/  7/  9 1017.5
DIAMOND BUOY     0250   85 85  220/ 14/ 16 1017.8    2/ 8   2/ 8
CAPE LOOKOUT     0400   83     220/  7/ 10 1017.8
BEAUFORT LAB     0400   83 84  220/  7/ 11 1017.4
30 SE NEW RVR IN 0408   84 85  210/ 12/ 17 1017.9
30 SE NEW RVR IN 0325      85                N/A     3/ 8
27 SE WRIGHTSVLE 0408   84 85  210/ 12/ 14 1018.0
5 SE WRIGHTSVLE  0308   84 84  220/ 14/ 17 1018.5
225 S CAPE HAT   0350   84 85  180/  4/  6 1019.2    2/ 9   2/ 9
41 SE CHARLESTON 0350   85 86  200/ 12/ 14 1017.4    2/ 9   2/ 9

$$




USA.gov is the U.S. government's official web portal to all federal, state and local government web resources and services.